Wind_Speed
2 4 8 13 10 3 5 5 6 3 3 2 6 6 12 5 6 7 6 6 6 6 6 15 18 18 19 20 21 22 22 20 21 24 26 27 29 28 27 25 23 24 22 20
4 7 10 4 5 5 3 4 6 5 3 4 7 8 11 2 2 3 8 7 6 4 5 13 19 21 23 22 24 25 25 25 24 26 26 26 28 30 27 25 24 22 21 20
7 5 6 6 5 6 5 8 4 7 3 3 2 6 8 3 3 6 6 5 5 7 7 5 13 18 21 24 23 26 27 25 24 23 25 25 26 25 27 28 28 27 25 23
6 4 5 4 6 7 6 8 7 5 3 4 1 5 5 4 4 4 7 7 7 6 4 6 10 15 18 20 22 25 27 29 29 27 26 28 31 31 28 28 27 28 28 28
7 5 4 6 6 7 7 5 6 4 3 1 3 2 7 6 6 7 6 5 4 3 3 5 9 13 14 18 20 23 26 28 27 28 28 30 33 30 26 25 26 26 26 26
5 2 6 7 2 4 6 5 6 4 3 2 9 8 4 5 4 4 5 8 9 7 6 4 8 11 14 16 19 21 24 26 25 26 27 28 28 26 25 23 24 23 24 24
2 5 3 3 4 2 4 5 1 3 2 6 1 2 5 2 2 1 11 10 8 7 7 5 7 9 12 14 16 18 21 23 23 24 25 24 24 23 22 21 20 20 20 22
7 4 10 6 7 6 7 7 5 6 3 4 2 6 4 2 4 4 7 9 8 7 7 8 11 11 11 12 13 15 17 20 19 20 21 20 19 20 20 19 18 18 18 17
5 4 1 3 4 7 5 5 4 4 2 2 4 4 3 1 3 4 8 10 9 8 8 8 13 13 13 12 12 13 15 16 16 17 17 17 16 16 16 15 14 15 14 15
6 2 0 2 3 4 4 6 3 2 2 5 4 4 5 6 7 6 8 10 9 8 8 7 13 14 14 14 13 12 12 14 14 14 13 13 12 12 12 11 11 11 10 11
5 3 1 3 5 9 3 2 3 3 4 5 3 5 5 6 7 11 11 10 10 9 9 7 16 20 18 16 14 13 13 13 13 11 11 10 9 8 8 8 8 9 10 11
7 4 4 8 2 2 3 7 7 6 7 3 2 12 1 3 9 8 8 8 8 8 8 10 19 20 19 20 18 17 15 14 13 12 11 9 7 5 3 4 7 9 11 13
9 3 2 5 1 2 5 5 3 3 3 7 5 8 1 1 5 8 9 9 9 9 8 8 14 20 23 23 21 19 18 16 15 14 12 9 6 3 1 5 9 13 16 18
6 6 8 9 6 5 4 6 5 6 6 8 14 17 4 5 7 6 7 7 8 8 9 7 7 17 24 26 25 23 20 19 17 16 14 12 9 5 4 7 11 15 18 21
4 5 3 2 3 4 6 7 9 10 11 12 14 15 7 11 9 9 7 6 5 7 7 7 8 14 20 26 25 23 23 22 21 19 17 14 10 7 6 8 13 18 21 23
2 3 3 2 2 4 6 11 11 15 6 6 4 13 7 6 5 4 8 8 6 8 7 7 7 13 21 28 28 27 25 25 24 23 20 16 13 10 10 12 16 20 22 24
7 6 4 8 4 6 10 13 15 7 5 10 14 14 3 5 8 8 8 6 7 8 7 6 7 13 19 26 29 28 28 25 26 25 22 18 15 13 12 14 17 20 22 24
7 6 3 3 3 8 2 2 3 14 10 9 1 4 6 5 5 5 6 8 9 7 7 6 10 13 16 19 23 25 24 23 25 25 22 19 16 14 13 15 17 19 22 24
1 5 4 4 6 7 6 5 7 8 10 10 11 7 5 5 4 4 6 7 7 8 12 14 11 8 7 11 15 19 21 22 23 25 23 19 16 14 14 16 18 20 22 24
3 3 6 4 4 7 3 2 4 5 6 8 9 9 7 6 2 5 5 6 9 13 13 13 10 8 10 13 14 16 20 22 26 25 20 17 14 14 15 17 19 20 21 24
4 0 8 6 7 7 5 5 4 5 7 4 6 6 7 5 5 4 4 7 16 18 17 12 10 14 16 15 15 19 21 25 22 19 17 14 14 15 17 18 18 19 21 24
7 8 4 2 3 10 7 4 8 5 3 5 6 7 7 7 6 6 6 6 10 16 16 14 14 17 19 17 17 21 23 21 18 17 15 14 14 15 16 18 17 18 20 23
2 6 6 10 6 1 10 4 4 5 6 5 6 7 8 7 7 8 8 9 12 18 22 18 18 20 21 20 20 23 23 19 18 16 15 14 15 15 15 17 18 20 19 22
4 3 3 3 3 5 9 5 3 7 7 8 7 6 7 8 7 8 7 7 9 19 25 28 20 20 23 22 22 23 20 18 18 17 15 15 15 15 15 16 18 19 21 22
5 7 6 1 1 2 7 8 8 9 9 5 5 7 9 6 8 8 7 7 15 21 25 23 21 24 27 23 23 22 19 18 17 16 15 15 15 16 17 18 18 19 19 19
6 7 4 4 8 6 7 12 12 10 9 10 9 7 7 9 10 6 8 17 20 21 23 19 21 22 23 20 22 22 20 18 17 17 16 16 16 16 17 18 21 16 17 18
Wind_Direction
17 123 209 200 199 156 151 177 221 252 237 157 238 246 263 291 109 139 147 123 94 65 41 59 56 60 64 68 71 75 81 88 101 97 91 86 78 78 73 68 62 57 54 52
54 225 223 129 173 184 127 177 248 289 241 164 269 262 256 320 72 197 158 149 130 108 47 43 57 62 64 62 68 71 79 84 90 97 96 91 84 76 72 68 65 61 55 50
172 215 136 156 169 167 200 212 206 221 347 254 314 273 251 71 77 62 83 126 143 146 123 66 62 64 67 67 68 75 81 87 93 99 104 100 92 81 72 65 64 62 61 57
232 274 192 171 211 148 220 195 189 217 113 241 162 274 290 165 116 133 163 170 164 146 115 103 94 80 76 75 79 83 86 89 92 97 97 94 91 87 82 78 74 69 66 63
237 176 174 205 217 165 227 139 166 161 172 102 265 325 257 144 215 200 198 173 162 160 133 120 100 93 89 91 90 91 92 92 93 93 94 94 95 95 92 86 80 73 69 64
229 270 166 202 109 177 131 74 47 48 105 245 223 188 262 195 210 145 162 175 171 168 154 138 116 109 99 97 98 98 96 94 94 94 95 96 97 95 89 81 73 67 64 60
197 223 186 164 107 76 94 96 325 331 328 235 15 169 257 173 66 225 186 175 174 163 161 173 148 131 120 113 109 105 102 100 100 97 94 94 95 92 87 79 72 65 58 52
170 255 167 190 189 173 177 161 165 226 224 275 350 234 245 337 341 298 169 157 165 170 169 187 179 160 152 142 133 124 116 111 106 102 99 96 90 83 78 71 65 60 54 45
155 267 152 160 143 146 187 180 160 103 102 29 211 301 271 78 61 88 136 153 179 190 186 192 191 182 172 164 156 147 132 121 116 108 104 96 89 82 74 68 58 48 38 28
204 140 158 131 101 26 174 163 96 17 270 259 249 251 233 245 216 170 171 186 191 193 195 200 199 195 191 185 175 161 149 139 130 122 113 104 94 86 75 62 51 39 26 13
149 135 229 107 208 174 138 184 75 135 167 196 274 253 202 222 184 193 196 200 195 193 198 199 203 205 199 191 183 174 168 161 151 143 131 120 107 95 79 60 44 26 10 2
193 132 169 195 169 149 179 191 166 200 225 244 149 263 37 298 192 186 193 197 198 202 198 201 210 207 201 197 192 189 183 177 171 165 160 156 145 121 78 41 18 5 357 351
177 184 79 354 52 333 213 203 165 106 72 195 219 264 360 38 175 196 193 199 203 205 202 207 207 205 207 204 202 199 195 192 189 187 185 186 188 204 332 359 355 351 348 346
154 167 168 213 189 140 186 203 185 189 226 241 243 267 184 223 206 195 211 204 208 204 205 208 198 211 212 211 209 207 205 204 201 201 202 207 213 235 301 333 339 340 339 337
167 216 176 205 164 183 205 205 176 196 214 224 257 232 178 206 207 214 212 214 206 217 218 212 214 213 213 214 213 212 214 210 209 210 211 217 222 240 277 311 324 328 328 329
346 198 117 279 170 223 261 235 189 211 208 241 224 261 175 219 226 193 217 221 233 244 237 227 217 210 212 213 214 214 216 216 214 217 219 220 226 244 278 303 314 317 320 323
162 143 118 244 81 60 274 227 214 205 192 219 230 239 147 207 213 217 230 213 216 223 230 237 227 223 222 218 219 220 223 222 221 221 221 224 233 252 277 298 306 312 318 321
158 128 144 140 89 227 250 102 150 213 233 207 30 217 198 183 192 197 203 196 215 212 211 219 224 225 225 227 228 234 237 232 226 222 222 225 236 255 279 296 305 312 315 318
298 131 157 184 200 320 266 180 160 166 243 178 208 228 190 134 120 264 207 208 205 202 210 212 211 211 217 229 239 241 242 236 223 221 221 226 240 262 284 298 305 310 312 314
76 44 206 134 199 235 296 113 110 89 265 203 184 203 157 133 148 250 216 203 218 220 209 197 197 224 252 262 261 248 240 223 219 218 220 232 251 274 290 298 301 306 310 312
129 119 213 211 230 273 216 175 144 140 260 172 170 159 148 171 197 215 187 208 219 208 201 207 225 241 249 256 249 237 231 223 224 219 226 241 263 281 289 293 299 304 308 309
158 166 198 122 228 267 151 61 172 199 18 149 173 171 178 209 237 229 230 238 215 212 215 222 233 243 249 249 240 231 226 225 222 225 236 252 268 279 287 292 298 300 302 304
236 193 183 190 202 68 192 172 187 153 154 195 182 198 195 203 218 226 226 223 222 223 230 239 241 248 247 243 237 230 230 223 224 231 243 256 268 276 283 288 293 297 301 303
254 161 200 99 196 200 207 226 209 198 204 195 207 179 176 212 223 237 231 230 226 240 241 250 252 240 242 238 235 235 229 225 229 239 250 261 269 275 278 282 288 292 297 299
195 138 154 250 248 91 271 234 231 218 231 202 176 203 215 202 245 226 241 232 240 250 253 250 240 242 244 239 230 227 226 228 235 246 254 259 266 272 277 278 283 287 291 292
177 172 164 207 196 171 209 219 218 214 222 217 209 237 231 199 231 213 237 242 247 251 260 246 243 238 240 236 224 222 225 233 239 245 251 257 260 265 271 280 287 280 283 284
Height
824 832 835 829 828 826 832 839 836 829 824 823 827 830 821 815 828 838 842 844 846 846 844 840 839 836 834 831 826 823 822 821 820 822 824 826 833 833 834 836 839 839 840 841
831 833 817 820 827 829 831 835 839 833 827 829 830 831 822 820 827 833 840 844 846 847 847 845 841 838 836 837 833 830 826 825 825 823 826 832 835 839 842 842 840 841 843 845
827 814 816 819 827 832 836 837 836 833 828 828 829 832 819 831 833 838 841 844 845 843 843 845 844 842 841 839 840 836 832 830 831 832 831 833 837 841 843 845 845 844 844 846
824 814 814 821 822 825 834 826 826 830 836 844 829 842 818 820 833 838 841 843 845 846 847 845 843 840 842 844 846 844 840 836 836 837 838 837 838 842 848 850 851 850 848 849
813 814 817 819 817 820 822 823 829 830 839 838 835 846 819 816 822 835 842 847 851 853 853 849 847 843 844 842 844 845 843 841 841 840 840 842 843 848 851 853 852 853 853 853
812 808 812 810 813 814 820 826 835 846 844 854 830 830 822 817 808 826 837 841 844 849 852 857 850 847 846 846 845 846 845 843 845 844 845 844 847 852 854 855 856 858 857 856
811 809 803 803 812 815 819 829 844 851 860 837 831 835 814 810 816 820 829 840 845 848 850 855 854 851 849 848 849 849 848 847 848 848 849 850 852 853 854 855 858 857 858 858
815 813 806 801 801 810 821 821 838 843 853 839 840 828 803 824 829 825 826 836 843 846 846 851 852 852 853 853 852 850 850 851 850 851 852 853 855 856 857 858 859 860 859 861
808 800 797 797 797 799 818 824 819 836 898 869 824 817 823 824 824 830 831 835 842 845 845 847 849 850 852 854 854 853 851 851 853 853 856 856 857 858 858 859 860 860 862 863
788 797 796 799 797 804 805 808 825 844 843 853 817 817 808 819 819 828 830 833 836 840 841 843 847 849 850 851 853 853 853 854 853 854 855 856 858 859 860 860 861 862 864 864
787 788 804 800 803 806 811 813 816 820 831 825 843 806 807 805 821 826 824 827 831 833 835 839 842 844 846 848 849 851 853 854 854 853 854 857 859 860 860 861 863 863 863 862
781 795 817 800 800 801 799 801 803 807 821 839 828 787 812 807 812 818 820 822 825 828 829 834 837 840 843 844 847 848 850 852 853 854 855 856 858 859 860 860 861 861 860 859
776 795 828 810 799 805 802 803 801 810 817 822 812 796 809 809 813 815 818 818 819 822 826 830 834 836 838 842 845 846 848 850 852 853 855 856 857 858 857 857 857 856 855 854
763 782 783 780 787 790 800 801 806 796 797 788 791 793 808 808 811 814 814 814 816 818 821 824 829 831 834 837 840 843 845 847 849 851 852 853 854 854 854 853 853 852 851 849
766 782 781 777 778 787 784 788 803 800 790 785 779 795 803 801 807 811 809 812 814 817 820 822 823 825 829 832 836 838 839 842 845 847 848 849 850 851 850 850 849 848 847 845
778 780 788 798 792 793 791 783 795 788 789 795 804 799 794 800 805 809 809 810 812 815 816 817 818 819 821 824 828 831 834 837 840 842 843 845 846 846 846 845 844 844 842 841
780 790 801 776 810 801 792 782 782 782 788 780 790 781 804 801 804 806 807 810 811 812 812 813 813 814 817 819 823 826 828 832 835 835 837 839 841 841 841 841 840 839 838 836
776 783 790 805 813 794 766 783 778 774 778 788 798 804 803 800 799 800 803 806 808 808 809 810 811 811 813 816 820 823 826 827 829 831 832 834 836 836 836 835 835 835 833 832
773 778 798 788 798 783 764 780 782 779 779 787 789 790 794 798 802 801 801 803 803 804 805 806 807 809 810 814 816 818 820 821 823 825 827 829 831 831 830 830 830 830 829 827
778 777 769 815 795 778 762 772 775 775 789 787 784 788 798 801 812 801 795 798 798 799 800 802 804 806 809 810 811 812 814 816 817 820 823 826 827 826 825 826 826 825 824 822
790 792 770 783 772 779 779 777 774 791 772 786 787 790 796 798 792 790 791 793 793 794 796 798 800 802 803 806 807 808 810 811 814 817 819 821 821 821 821 821 821 821 820 818
773 783 801 801 787 768 772 779 776 769 775 776 780 781 784 783 784 788 789 790 791 791 792 794 795 796 799 800 801 803 805 807 811 813 814 816 816 816 816 816 817 817 816 813
764 758 771 765 760 762 763 759 762 763 770 774 775 774 775 780 782 783 785 786 785 785 787 789 790 791 793 794 795 797 799 803 806 809 810 811 812 812 813 813 812 812 812 809
763 761 763 762 761 760 760 759 761 763 764 765 765 768 773 775 773 775 778 779 779 780 781 783 784 785 786 788 790 793 796 799 802 804 806 806 806 807 809 809 809 807 807 805
747 754 766 766 756 757 756 757 755 758 758 760 762 764 765 768 769 771 772 771 773 773 775 777 777 777 779 782 785 789 792 795 797 799 801 801 802 803 804 804 804 802 801 801
740 740 747 754 741 742 744 743 745 751 752 753 757 759 760 763 762 763 765 764 765 765 767 769 769 771 773 777 781 784 788 791 793 794 795 797 798 799 799 798 797 798 797 796